Location: Roland
(31.1349°N, 85.4372°W)
Time: 23:01:45
(UTC+00:00)

Tiros 1 - Pass Details

Date: 18 April 2021
Orbit: 630 x 664 km, 48.4° (Epoch: 06 May)

Event Time Altitude Azimuth Distance (km) Brightness Sun altitude
Rises 15:22:52 0° 250° (WSW) 2,932 10.3 52.3°
Reaches altitude 10° 15:25:21 10° 259° (W) 2,019 9.5 52.8°
Maximum altitude 15:29:38 36° 326° (NNW) 1,006 8.3 53.6°
Drops below altitude 10° 15:33:54 10° 34° (NNE) 2,010 9.9 54.4°
Sets 15:36:23 0° 43° (NE) 2,917 10.6 54.9°
